PHVOP EHSE-EHMZ

Flight info

Callsign PHVOP
Flight time 0h 13m
Altitude 1500
Route EHSE EHMZ
Aircraft DA40/L-V/N

Departure

Time 2026-05-06 08:35
Airport Breda International Airport (EHSE)

Arrival

Time 2026-05-06 08:48
Airport Midden-Zeeland Airfield (EHMZ)
Time Latitude Longitude Altitude Speed Heading
2026-05-06 08:35 51.64583 4.26744 1186 ft 118 kts 262°
2026-05-06 08:35 51.64401 4.25474 1190 ft 115 kts 262°
2026-05-06 08:35 51.64122 4.24274 1190 ft 114 kts 252°
2026-05-06 08:35 51.63833 4.23093 1190 ft 113 kts 253°
2026-05-06 08:36 51.63540 4.21917 1196 ft 114 kts 253°
2026-05-06 08:36 51.63242 4.20728 1195 ft 116 kts 253°
2026-05-06 08:36 51.62938 4.19520 1198 ft 117 kts 253°
2026-05-06 08:36 51.62630 4.18294 1201 ft 119 kts 253°
2026-05-06 08:37 51.62321 4.17055 1205 ft 119 kts 253°
2026-05-06 08:37 51.61995 4.15816 1207 ft 124 kts 253°
2026-05-06 08:37 51.61648 4.14495 1209 ft 131 kts 253°
2026-05-06 08:37 51.61307 4.13118 1210 ft 134 kts 253°
2026-05-06 08:38 51.60974 4.11710 1210 ft 135 kts 253°
2026-05-06 08:38 51.60601 4.10311 1208 ft 137 kts 245°
2026-05-06 08:38 51.60100 4.08996 1208 ft 138 kts 243°
2026-05-06 08:38 51.59611 4.07664 1210 ft 138 kts 243°
2026-05-06 08:39 51.59136 4.06339 1208 ft 139 kts 244°
2026-05-06 08:39 51.58638 4.05001 1208 ft 139 kts 244°
2026-05-06 08:39 51.58192 4.03625 1212 ft 139 kts 246°
2026-05-06 08:39 51.57754 4.02231 1213 ft 139 kts 247°
2026-05-06 08:40 51.57322 4.00855 1209 ft 137 kts 247°
2026-05-06 08:40 51.56920 3.99480 1205 ft 135 kts 255°
2026-05-06 08:40 51.56588 3.98066 1207 ft 136 kts 255°
2026-05-06 08:40 51.56253 3.96641 1207 ft 136 kts 254°
2026-05-06 08:41 51.55932 3.95224 1208 ft 133 kts 258°
2026-05-06 08:41 51.55692 3.93796 1207 ft 132 kts 261°
2026-05-06 08:41 51.55467 3.92375 1208 ft 134 kts 261°
2026-05-06 08:41 51.55231 3.90928 1207 ft 134 kts 261°
2026-05-06 08:42 51.55004 3.89485 1208 ft 133 kts 262°
2026-05-06 08:42 51.54829 3.88043 1208 ft 131 kts 267°
2026-05-06 08:42 51.54701 3.86590 1208 ft 131 kts 267°
2026-05-06 08:42 51.54576 3.85156 1206 ft 125 kts 268°
2026-05-06 08:43 51.54425 3.83825 1203 ft 118 kts 269°
2026-05-06 08:43 51.54329 3.82555 1201 ft 112 kts 278°
2026-05-06 08:43 51.54297 3.81326 1217 ft 108 kts 277°
2026-05-06 08:43 51.54263 3.80141 1136 ft 109 kts 277°
2026-05-06 08:44 51.54226 3.78933 1110 ft 107 kts 275°
2026-05-06 08:44 51.54136 3.77781 1120 ft 106 kts 270°
2026-05-06 08:44 51.54024 3.76563 1027 ft 109 kts 271°
2026-05-06 08:44 51.53856 3.75395 965 ft 107 kts 261°
2026-05-06 08:45 51.53555 3.74347 805 ft 101 kts 248°
2026-05-06 08:45 51.53075 3.73502 700 ft 111 kts 218°
2026-05-06 08:45 51.52529 3.72710 794 ft 97 kts 242°
2026-05-06 08:45 51.52237 3.71807 828 ft 91 kts 274°
2026-05-06 08:46 51.52177 3.70775 879 ft 92 kts 270°
2026-05-06 08:46 51.52145 3.69665 677 ft 103 kts 285°
2026-05-06 08:46 51.52086 3.68590 618 ft 92 kts 257°
2026-05-06 08:46 51.51612 3.67981 619 ft 93 kts 183°
2026-05-06 08:47 51.51133 3.68469 575 ft 79 kts 109°
2026-05-06 08:47 51.51108 3.69216 472 ft 62 kts 69°
2026-05-06 08:47 51.51183 3.69924 329 ft 70 kts 75°
2026-05-06 08:47 51.51210 3.70763 272 ft 73 kts 82°
2026-05-06 08:48 51.51195 3.71527 192 ft 64 kts 81°
2026-05-06 08:48 51.51209 3.72238 59 ft 66 kts 72°
2026-05-06 08:48 51.51229 3.72952 9 ft 59 kts 75°
2026-05-06 08:48 51.51226 3.73330 5 ft 11 kts 75°
2026-05-06 08:49 51.51240 3.73444 5 ft 14 kts 81°
2026-05-06 08:49 51.51284 3.73448 5 ft 11 kts 269°
2026-05-06 08:49 51.51286 3.73293 6 ft 16 kts 268°
2026-05-06 08:49 51.51283 3.73101 7 ft 15 kts 259°
2026-05-06 08:50 51.51298 3.72983 5 ft 7 kts 287°
2026-05-06 08:50 51.51313 3.72962 5 ft 5 kts 353°
2026-05-06 08:50 51.51314 3.72961 5 ft 0 kts 352°